BREEZE-M DEB (TANK), 42936

Orbit data source: Space-Track

BREEZE-M DEB (TANK), 42936 is space debris in HEO originally from a launch on Mon, 11 Sep 2017 UTC launched from the Tyuratam Missile And Space Complex (TTMTR). Debris objects in space refer to the collection of defunct objects orbiting the Earth. Examples of debris include non-operational satellites, rocket bodies, and fragments generated from explosions, collisions, or faulty payload assembly.

Loading next visibility...
Identifier
42936, 2017-053C
Orbit
HEO
Last TLE update
18 hours ago
Origin
Manufacturer
Khrunichev
Mission
Spacecraft
Bus & Motor
BRIZ TANK, Unknown motor
Mass
~1,000 kg wet, 1,000 kg dry
Launch date (UTC)
2017-09-11 (8 years ago)
Launch vehicle
Unknown
Launch site
Tyuratam Missile And Space Complex (TTMTR)
Object type
Payload
Rocket body
Debris
Shape & HBR
Torus, 4 m
Radar Cross Section
8.218 m², Large (>1 m²)

Expand to show TLE details & history

TLE from 18 hours ago
0 BREEZE-M DEB (TANK)
1 42936U 17053C   25186.22628179  .00003143  00000-0  54789-3 0  9996
2 42936  49.4563 188.3811 5117583 123.1744 296.5641  5.42122046151016
Epoch: 2025-07-05T05:25Z
TLE epoch observation values (Epoch: 2025-07-05T05:25:50.746Z)
Latitude
-0.00002°
Longitude
-176.53797°
Altitude
7,642.566 km
Speed
5.267 km/s
True Right ascension
12h 33m 33s
True Declination
0° 00' 00"
Sunlit
Object was in daylight at epoch
Visualization orbit readout
Latitude
-1.6453°
Longitude
-178.54746°
Altitude
8,037.364 km
Speed
5.117 km/s
Apparent Right ascension
13h 05m 44s
Apparent Declination
-24° 10' 54"
Sunlit
Object is in daylight
Visualization observer readout
Local Sidereal Time
11:02:08
Azimuth
150.155° SSE
Elevation
19.727°
Doppler factor
1
Orbital elements
Apogee altitude
14,315.713 km
Perigee altitude
305.207 km
Semi-major axis
13,688.597 km
Eccentricity
0.51176
Inclination
49.4563°
RAAN
188.3811°
Arg. of periapsis
123.1744°
True anomaly
Unknown
Mean anomaly
296.5641°
Eccentric anomaly
Unknown
Mean motion
1.3552 °/min
Orbital period
265.64 mins
BSTAR
0.00054789
Loading maneuver chart data...
Loading SW <> Apogee altitude chart data...
Loading historical data...
Loading historical data...
Loading historical data...
Loading historical data...
Loading historical data...
Loading historical data...
Loading historical data...
Other satellites on launch #53 in the year 2017 (2017-09-11 UTC)

BREEZE-M DEB (TANK) Visibility forecast

Observer location: undefined°, undefined°

Span
Click to sort rows by Start time (UTC) header in descending order
Start Az.
Max El. time (UTC)
Max El. Az.
Max El.
End time (UTC)
End Az.
27 mins2025-07-05 23:05:50.993Z150.184° SSE2025-07-05 23:18:50.993Z131.897° SE21.085°2025-07-05 23:32:50.993Z92.497° ESE
31 mins2025-07-06 03:40:50.993Z239.13° WSW2025-07-06 04:05:50.993Z301.097° NW44.017°2025-07-06 04:11:50.993Z54.254° ENE
|